CST,Max TemperatureF,Mean TemperatureF,Min TemperatureF,Max Dew PointF,MeanDew PointF,Min DewpointF,Max Humidity, Mean Humidity, Min Humidity, Max Sea Level PressureIn, Mean Sea Level PressureIn, Min Sea Level PressureIn, Max VisibilityMiles, Mean VisibilityMiles, Min VisibilityMiles, Max Wind SpeedMPH, Mean Wind SpeedMPH, Max Gust SpeedMPH,PrecipitationIn, CloudCover, Events, WindDirDegrees
2013-1-1,50,44,37,48,42,36,94,89,66,30.11,30.04,29.97,10,6,2,18,4,24,0.67,8,Rain,10
2013-1-2,37,34,32,36,32,30,100,92,87,30.23,30.17,30.09,7,4,2,12,8,,0.00,8,,356
2013-1-3,42,35,28,30,27,21,93,78,45,30.40,30.30,30.19,10,8,4,10,5,,0.00,3,,347
2013-1-4,44,34,24,27,23,19,86,67,37,30.47,30.41,30.37,10,10,7,10,1,,0.00,0,,350
2013-1-5,46,35,24,36,26,19,93,69,34,30.41,30.34,30.27,10,9,3,8,1,,0.00,4,Rain,219
2013-1-6,46,39,32,36,33,27,100,81,57,30.34,30.25,30.19,10,9,2,10,2,,0.00,5,,272
2013-1-7,51,38,26,30,26,23,93,74,33,30.40,30.33,30.27,10,8,5,9,3,,0.00,0,,10
2013-1-8,59,44,28,41,33,25,93,61,39,30.35,30.28,30.25,10,10,10,10,4,17,0.00,0,,142
2013-1-9,57,54,50,54,50,41,94,87,71,30.39,30.34,30.28,10,5,0,12,5,18,0.29,8,Rain,128
2013-1-10,64,60,55,55,55,52,94,80,73,30.36,30.24,30.05,10,8,3,17,6,24,0.06,8,Rain,138
2013-1-11,68,64,60,63,59,55,94,82,68,30.12,30.07,30.04,10,9,3,18,12,25,0.01,8,Rain,181
2013-1-12,69,66,64,63,60,54,94,80,64,30.09,30.03,29.94,10,9,2,13,7,21,0.01,7,Rain,171
2013-1-13,68,52,37,61,54,36,94,84,64,30.17,29.99,29.90,10,8,2,17,9,29,0.80,7,Rain-Thunderstorm,166
2013-1-14,39,36,32,36,32,30,100,91,81,30.29,30.20,30.14,10,6,1,18,11,25,0.23,8,Rain-Snow,5
2013-1-15,37,35,33,36,34,32,100,93,87,30.17,30.08,29.97,7,4,1,15,7,18,0.83,8,Rain-Snow,5
2013-1-16,37,36,35,36,34,32,93,91,87,30.10,30.05,29.98,10,8,2,13,5,,0.07,8,Rain,352
2013-1-17,42,37,32,34,31,27,93,82,61,30.40,30.08,29.93,10,8,2,23,12,31,0.00,5,Rain-Snow-Thunderstorm,348
2013-1-18,48,38,28,30,27,14,93,74,25,30.57,30.46,30.40,10,9,4,7,3,,0.00,0,,357
2013-1-19,53,40,28,32,27,21,93,63,28,30.41,30.31,30.22,10,10,10,15,3,21,0.00,0,,194
2013-1-20,55,42,30,34,31,28,100,73,36,30.25,30.19,30.14,10,10,5,7,1,,0.00,0,,341
2013-1-21,44,36,28,30,18,7,93,56,23,30.27,30.21,30.13,10,10,10,14,3,21,0.00,0,,340
2013-1-22,35,29,23,18,11,3,69,46,30,30.41,30.34,30.26,10,10,10,10,4,,0.00,2,,356
2013-1-23,53,42,32,34,23,14,64,48,34,30.38,30.28,30.18,10,10,10,12,2,16,0.00,5,,222
2013-1-24,46,39,32,36,17,7,87,47,25,30.40,30.31,30.20,10,10,10,15,5,22,0.00,3,,21
2013-1-25,44,40,37,41,28,5,93,66,26,30.26,30.16,30.10,10,6,1,14,7,23,0.06,8,Rain,118
2013-1-26,50,41,32,34,30,27,100,74,40,30.33,30.29,30.21,10,8,3,10,4,,0.00,3,,8
2013-1-27,50,41,32,36,31,28,93,63,50,30.37,30.31,30.28,10,10,5,13,4,18,0.00,6,Rain,139
2013-1-28,62,54,46,48,40,30,82,62,50,30.32,30.25,30.18,10,10,7,16,9,22,0.00,4,,154
2013-1-29,68,60,51,59,54,46,94,80,68,30.19,30.01,29.74,10,7,2,21,6,29,0.00,6,,147
2013-1-30,69,52,35,61,46,21,94,76,52,29.95,29.68,29.57,10,8,2,29,16,38,0.77,8,Rain-Thunderstorm,219
2013-1-31,44,37,30,27,21,18,69,52,34,30.17,30.09,29.95,10,10,10,16,10,24,0.00,3,,249